Regional Weather Roundup
Issued by NWS Upton, NY

Current Version | Previous Version | Text Only | Print | Product List | Glossary On
Versions: 1 2 3 4 5 6 7 8 9 10 11 12 13 14 15 16 17 18 19 20 21 22 23 24 25 26 27 28 29 30 31 32 33 34 35 36 37 38 39 40 41 42 43 44 45 46 47 48 49 50
492
ASUS41 KOKX 290009
RWROKX

REGIONAL WEATHER ROUNDUP
NATIONAL WEATHER SERVICE NEW YORK NY
800 PM EDT FRI JUL 28 2017

NOTE: "FAIR" INDICATES FEW OR NO CLOUDS BELOW 12,000 FEET WITH NO
SIGNIFICANT WEATHER AND/OR OBSTRUCTIONS TO VISIBILITY.

NYZ071-072-176-178-NJZ106-104-290100-
NEW YORK CITY METRO AREA

CITY           SKY/WX    TMP DP  RH WIND       PRES   REMARKS
Central Park   FAIR      77  68  73 S3        29.82R
Bronx Bot Gard   N/A     77  63  61 E3        29.82R
LaGuardia APRT CLOUDY    82  70  66 E8        29.79R
Kennedy INTL   CLOUDY    76  72  87 SE6       29.81R
Breezy Point     N/A     72 N/A N/A SE5         N/A
Newark/Liberty CLOUDY    78  67  68 SE5       29.79R
Teterboro      FAIR      82  62  50 E5        29.78R
$$

NYZ177-179-078>081-290100-
LONG ISLAND NEW YORK

CITY           SKY/WX    TMP DP  RH WIND       PRES   REMARKS
Jones Beach      N/A     73 N/A N/A SE5         N/A
Matinecock PT    N/A     75 N/A N/A E2          N/A
Farmingdale    FAIR      75  70  84 SE6       29.81R
MacArthur/ISP  CLOUDY    75  71  87 SE5       29.81R
Shirley        FAIR      75  72  90 SE3       29.81R
Mt Sinai Harb    N/A    N/A N/A N/A S2          N/A
Westhampton    FAIR      73  69  87 CALM      29.82S
East Hampton   FAIR      73  69  90 CALM      29.81S
Montauk          N/A     74  72  93 CALM      29.82R
$$

NYZ052-065-067-290100-
HUDSON VALLEY

CITY           SKY/WX    TMP DP  RH WIND       PRES   REMARKS
White Plains   FAIR      77  63  61 E5        29.82R
Larchmont Harb   N/A     75 N/A N/A N5          N/A
Croton O-T Hud   N/A     77 N/A N/A NE5         N/A
Newburgh       MOCLDY    75  63  64 NE9       29.85R
Montgomery     FAIR      74  64  71 NE7       29.83R
Poughkeepsie   FAIR      74  62  66 VRB3      29.82R
Albany         MOCLDY    73  58  59 N5        29.86R
$$

NJZ001-105-106-008-010-013-015-019>022-104-290100-
NEW JERSEY

CITY           SKY/WX    TMP DP  RH WIND       PRES   REMARKS
Newark/Liberty CLOUDY    78  67  68 SE5       29.79R
Teterboro      FAIR      82  62  50 E5        29.78R
Caldwell       FAIR      78  64  61 NE3       29.80R
Somerville     FAIR      79  67  66 CALM      29.77R
Linden         FAIR      77  68  72 CALM      29.79S
Perth Amboy      N/A     75 N/A N/A E9          N/A
Sussex         MOCLDY    76  67  73 NE7       29.82R
Andover          N/A     73  67  81 CALM      29.82R
Trenton        FAIR      78  68  71 SE7       29.77S
Millville      FAIR      74  74 100 SE5       29.76S
Atlantic City  CLOUDY    76  73  91 E8        29.77S
Wrightstown    FAIR      75  70  84 E6        29.75S
Toms River     FAIR      75  71  87 E3        29.79F
Belmar         MOCLDY    74  71  91 E7        29.80F
$$

PAZ047>061-062-071-290100-
EASTERN PENNSYLVANIA

CITY           SKY/WX    TMP DP  RH WIND       PRES   REMARKS
Philadelphia   LGT RAIN  78  71  79 SE9       29.77R
Allentown      FAIR      77  65  66 NE9       29.78F
Scranton       FAIR      75  63  66 N9        29.84R
$$

CTZ002-004>006-009-010-012-RIZ004-006-007-MAZ004-011-015-290100-
SOUTHERN NEW ENGLAND
 IN CT

CITY           SKY/WX    TMP DP  RH WIND       PRES   REMARKS
Bradley INTL   CLOUDY    75  62  64 NW7       29.82R
Hartford       FAIR      79  62  56 N8        29.81R
Danbury        FAIR      75  60  59 CALM      29.85R
Wtrbury/Oxford MOCLDY    72  59  64 NE8       29.85R
Bridgeport     CLOUDY    79  62  56 CALM      29.81R
Meriden        FAIR      77  62  59 CALM      29.81R
New Haven      CLOUDY    77  68  73 CALM      29.81R
Chester        MOCLDY    75  66  73 CALM      29.82S HAZE
Groton         FAIR      73  69  87 CALM      29.81R
Wilimantic     FAIR      76  68  76 N5        29.81R

 IN RI

CITY           SKY/WX    TMP DP  RH WIND       PRES   REMARKS
Providence     MOCLDY    75  71  87 S6        29.82R
Block Island   FAIR      73  70  90 S6        29.82R
Westerly       MOCLDY    73  71  93 S6        29.82R
 IN MA

CITY           SKY/WX    TMP DP  RH WIND       PRES   REMARKS
Boston         MOCLDY    72  64  76 SE9       29.81S
Worcester      FAIR      71  58  63 NW5       29.86R
Westfield      FAIR      74  68  81 NE3       29.82R
Provincetown   FAIR      72  67  84 S3        29.83R
Nantucket      FAIR      66  66 100 SE7       29.83F
$$

ANZ330-335-338-340-345-350-353-355-290100-
COASTAL MARINE OBSERVATIONS


STATION/POSITION TIME  SKY/WX   TEMP    WIND        PRES    VSBY  WAVE
                                AIR SEA DIR/SP/G                  HT/PER
                 (UTC)          (F)     (DEG/KT/KT) (MB)    (MI)  (FT/S)
NY HARB ENTRANCE 2350            74 74  120/  6/  8 1008.6          2/ 7
20 S FIRE ISLAND 2350            75 76  120/  8/ 10 1008.9          3/ 7
GREAT SOUTH BAY  2330            74 78  130/  6/  8   N/A
23 SSW MONTAUK P 2350            74 74              1009.6          2/ 5
15 E BARNEGAT LI 2330               74                N/A           3/ 7
HUDSON CANYON    2350            73 73   70/  4/  4 1008.4          3/ 7
KINGS POINT      2330            79 73  140/  2/  3 1008.6
EXECUTION ROCKS  2345            76      50/  4/  6   N/A
CENTRAL LI SOUND NOT AVBL
EASTERN LI SOUND NOT AVBL
ROBBINS REEF     2324                   180/ 12/ 12 1009.4
$$


>>>>>>>>>>>>>>>>>>>>>>>>>>>> KEY <<<<<<<<<<<<<<<<<<<<<<<<<<<
>                                                          <
>     SKY/WX - Sky Condition/Present Weather               <
>     TMP    - Temperature in Fahrenheit                   <
>     DP     - Dew Point in Fahrenheit                     <
>     RH     - Relative Humidity in Percent                <
>     WIND   - Direction (from) and Speed in MPH           <
>     PRES   - Mean Sea Level Pressure (inches of Hg)      <
>     WCI    - Wind Chill Index                            <
>     VSB    - VISIBILITY IN MILES                         <
>     HX     - HEAT INDEX                                  <
>     TC     - TEMPERATURE IN CELSIUS                      <
>     VRB    - VARIABLE WIND DIRECTION                     <
>                                                          <
>>>>>>>>>>>>>>>>>>>>>>>>>>>> KEY <<<<<<<<<<<<<<<<<<<<<<<<<<<




USA.gov is the U.S. government's official web portal to all federal, state and local government web resources and services.